Regional Weather Roundup
Issued by NWS

Home | Current Version | Previous Version | Graphics & Text | Print | Product List | Glossary Off
Versions: 1 2 3 4 5 6 7 8 9 10 11 12 13 14 15 16 17 18 19 20 21 22 23 24 25 26 27 28 29 30 31 32 33 34 35 36 37 38 39 40 41 42 43 44 45 46 47 48 49 50

000
ASUS43 KMKX 241621
RWRWI

WISCONSIN REGIONAL WEATHER ROUNDUP
NATIONAL WEATHER SERVICE MILWAUKEE/SULLIVAN WI
1000 AM CST FRI FEB 24 2017

NOTE: "FAIR" INDICATES FEW OR NO CLOUDS BELOW 12,000 FEET WITH NO
SIGNIFICANT WEATHER AND/OR OBSTRUCTIONS TO VISIBILITY.

WIZ001-002-006>008-014>016-023>028-241700-
NORTHWEST WISCONSIN

CITY           SKY/WX    TMP DP  RH WIND       PRES   REMARKS
SUPERIOR ARPT  CLOUDY    21  13  71 NE15      29.97R WCI   8
ASHLAND        LGT SNOW  20  15  81 NE17G24   29.93R WCI   5
HAYWARD        LGT SNOW  23  15  71 NE22G30   29.86R WCI   8
SIREN          CLOUDY    24  17  75 NE13G25   29.88R WCI  12
CUMBERLAND     LGT SNOW  25  19  80 N15       29.82R WCI  12
RICE LAKE      LGT SNOW  25  21  83 N16       29.83R WCI  13
CHETEK         LGT SNOW  26  20  80 N14G21    29.82R WCI  14
LADYSMITH      LGT SNOW  26  19  76 NE17G28   29.80S WCI  13
EAU CLAIRE     FRZ RAIN  27  24  89 N10       29.77S FOG     WCI  17
MENOMONIE      LGT SNOW  28  25  86 N13       29.80R WCI  18
NEW RICHMOND   LGT SNOW  27  19  72 N14G20    29.84R WCI  16
OSCEOLA        CLOUDY    27  19  72 N13G21    29.89R WCI  16
$$

WIZ003>005-009-010-017-018-241700-
NORTH CENTRAL WISCONSIN

CITY           SKY/WX    TMP DP  RH WIND       PRES   REMARKS
MANITOWISH WTR LGT SNOW  20  18  90 N9        29.78S WCI   9
ARBOR VITAE    LGT SNOW  22  18  84 NE9G18      N/A  WCI  11
WOODRUFF       LGT SNOW  22  18  84 NE9G18      N/A  WCI  11
RHINELANDER    MIX PCPN  23  19  85 NE10G22   29.73F FOG     WCI  12
EAGLE RIVER    CLOUDY    21  15  78 NE18G25   29.75S HAZE    WCI   6
LAND O LAKES   LGT SNOW  21  17  84 NE10G20   29.78F WCI   9
PHILLIPS       LGT SNOW  21  18  87 NE17      29.77S WCI   7
TOMAHAWK       MIX PCPN  22  19  85 NE9       29.75R WCI  12
MEDFORD        CLOUDY    24  19  81 NE15G25   29.72R HAZE    WCI  11
MERRILL        NOT AVBL
$$

WIZ029-030-035-036-043>047-241700-
CENTRAL WISCONSIN

CITY           SKY/WX    TMP DP  RH WIND       PRES   REMARKS
WAUSAU         MIX PCPN  25  21  85 N8        29.70R FOG     WCI  16
MOSINEE        LGT SNOW  27  23  86 N16G23    29.70R WCI  14
MARSHFIELD     CLOUDY    26  22  84 NE13G25   29.68F FOG     WCI  15
STEVENS POINT  MIX PCPN  26  23  91 NE17G23   29.68R WCI  12
WAUPACA        CLOUDY    31  26  83 N13G20    29.66F HAZE    WCI  21
WAUTOMA        MIX PCPN  29  26  89 NE21G30   29.64R FOG     WCI  16
WISC RAPIDS    LGT SNOW  28  24  85 NE16G28   29.68F FOG     WCI  16
CAMP DOUGLAS   LGT SNOW  28  27  93 NE12G20   29.66R FOG     WCI  18
$$

WIZ011>013-019>022-031-037>040-048>050-241700-
NORTHEAST WISCONSIN

CITY           SKY/WX    TMP DP  RH WIND       PRES   REMARKS
ANTIGO         LGT SNOW  23  19  87 NE17G23   29.70R WCI   9
SHAWANO        CLOUDY    30  26  84 NE15G24   29.70R FOG     WCI  19
OCONTO         CLOUDY    28  24  86 NE21G29   29.70F WCI  14
STURGEON BAY   LGT SNOW  28  24  85 NE22      29.68F FOG     WCI  14
GREEN BAY      LGT SNOW  29  28  96 NE26G43   29.65F VSB 3/4 WCI  14
MANITOWOC      LGT SNOW  32  30  92 NE14G28   29.64S VSB 3/4 WCI  22
APPLETON       DRIZZLE   28  27  93 NE21G29   29.61F WCI  15
CLINTONVILLE   CLOUDY    28  23  80 NE18G35   29.68R HAZE    WCI  16
OSHKOSH        MIX PCPN  30  27  88 NE22G35   29.61S FOG     WCI  17
$$

WIZ032>034-041-042-053>061-241700-
SOUTHWEST WISCONSIN

CITY           SKY/WX    TMP DP  RH WIND       PRES   REMARKS
LA CROSSE      LGT SNOW  32  27  81 N16       29.69S WCI  21
SPARTA         MIX PCPN  30  28  92 N10G17    29.69R WCI  21
VIROQUA        CLOUDY    30  28  92 NE15G21   29.62R WCI  19
BOSCOBEL       CLOUDY    32  28  85 NE9G21    29.62R FOG     WCI  24
PRAIRIE DU CHI CLOUDY    31  30  96 N7G17     29.61R FOG     WCI  24
PLATTEVILLE    CLOUDY    32  32 100 N13       29.55R WCI  22
$$

WIZ056-057-062-063-064-067-068-241700-
SOUTH CENTRAL WISCONSIN

CITY           SKY/WX    TMP DP  RH WIND       PRES   REMARKS
REEDSBURG      CLOUDY    29  29  99 NE10G16   29.62R FOG     WCI  20
BARABOO/DELLS  CLOUDY    29  28  94 NE12G17   29.61R FOG     WCI  19
LONE ROCK      FRZ RAIN  31  27  85 NE14G26   29.61R FOG     WCI  21
MINERAL POINT    N/A     32  32 100 NE7       29.54R FOG     WCI  26
MADISON        CLOUDY    32  30  92 NE15G28   29.55F FOG     WCI  22
MIDDLETON      CLOUDY    33  33 100 NE10G17   29.56S WCI  25
WATERTOWN      CLOUDY    32  32 100 NE15      29.54S WCI  22
MONROE         CLOUDY    32  32 100 NE22G31   29.49S WCI  19
JANESVILLE     CLOUDY    36  36 100 NE15G23   29.51S FOG     WCI  26
$$

WIZ051-052-058>065-066-070>072-241700-
SOUTHEAST WISCONSIN

CITY           SKY/WX    TMP DP  RH WIND       PRES   REMARKS
MILWAUKEE      LGT RAIN  35  33  92 N18G28    29.55S FOG     WCI  24
WAUKESHA       CLOUDY    30  30 100 NE16G23   29.57R FOG     WCI  19
MILWAUKEE/TIMM DRIZZLE   32  30  93 N20G32    29.56F WCI  20
RACINE         LGT RAIN  36  34  92 NE18G28   29.54S FOG     WCI  26
KENOSHA        MIX PCPN  36  34  92 NE16G28   29.50F FOG     WCI  26
FOND DU LAC    LGT SNOW  32  27  81 NE24G33   29.59F WCI  19
SHEBOYGAN      LGT SNOW  32  30  92 NE31G43   29.59F VSB 1   WCI  17
WEST BEND      CLOUDY    32  32 100 NE10G18   29.56F FOG     WCI  24
JUNEAU         CLOUDY    31  30  93 NE10G16   29.57R FOG     WCI  23
$$

LSZ147-162-241700-
LAKE SUPERIOR

STATION/POSITION TIME  TEMP    WIND        PRES    WAVE
                       AIR SEA DIR/SP/G            HT/PER
                 (UTC) (F)     (DEG/KT/KT) (MB)    (FT/S)
DEVILS ISLAND    1600   18      40/ 25/ 27 1015.9F
PORT WING        1540   23      30/ 21/ 27 1014.2S
SAXON HARBOR     1541   24      30/ 22     1012.5F
$$

LMZ867-665-643>646-241700-
LAKE MICHIGAN

STATION/POSITION TIME  TEMP    WIND        PRES    WAVE
                       AIR SEA DIR/SP/G            HT/PER
                 (UTC) (F)     (DEG/KT/KT) (MB)    (FT/S)
CHAMBERS ISLAND  1540   28     360/ 28/ 32 1006.1F
NORTHPORT PIER   1602   27      10/ 23     1006.8
SISTER BAY       1535   28      10/ 20/ 31   N/A
KEWAUNEE LAKESHO 1600   31      40/ 28/ 34 1003.9
SHEBOYGAN LAKESH 1600   33      30/ 32/ 36 1002.5F
PORT WASHINGTON  1540   33      30/ 21/ 27 1003.0F
MILWAUKEE LAKESH 1600   34      20/ 22/ 26   N/A
KENOSHA   LAKESH 1600   35      10/ 22/ 24  999.7
$$

TC  - TEMPERATURE IN CELSIUS
VSB - VISIBILITY IN STATUTE MILES
WCI - WIND CHILL INDEX
HX  - HEAT INDEX





USA.gov is the U.S. government's official web portal to all federal, state and local government web resources and services.